QPF
0.00 0.00 0.00 0.00 0.00 0.00 0.00 0.00 0.00 0.00 0.00 0.00 0.00 0.00 0.00 0.00 0.00 0.00 0.00 0.00 0.00 0.01 0.01 0.02 0.03 0.04 0.03 0.02 0.04 0.07 0.10 0.13 0.10 0.09 0.09 0.07 0.05 0.05 0.05 0.05 0.06 0.08 0.07 0.07
0.00 0.00 0.00 0.00 0.00 0.00 0.00 0.00 0.00 0.00 0.00 0.00 0.00 0.00 0.00 0.00 0.00 0.00 0.00 0.00 0.00 0.00 0.01 0.02 0.04 0.05 0.03 0.03 0.05 0.07 0.09 0.14 0.13 0.12 0.13 0.10 0.07 0.07 0.08 0.08 0.09 0.08 0.08 0.09
0.00 0.00 0.00 0.00 0.00 0.00 0.00 0.00 0.00 0.00 0.00 0.00 0.00 0.00 0.00 0.00 0.00 0.00 0.00 0.00 0.00 0.01 0.02 0.04 0.05 0.03 0.03 0.04 0.05 0.06 0.07 0.12 0.12 0.14 0.16 0.15 0.12 0.10 0.08 0.09 0.10 0.08 0.07 0.09
0.00 0.00 0.00 0.00 0.00 0.00 0.00 0.00 0.00 0.00 0.00 0.00 0.00 0.00 0.00 0.00 0.00 0.00 0.00 0.00 0.00 0.00 0.01 0.03 0.03 0.02 0.02 0.02 0.03 0.05 0.05 0.08 0.12 0.12 0.14 0.17 0.18 0.14 0.10 0.10 0.11 0.11 0.11 0.10
0.00 0.00 0.00 0.00 0.00 0.00 0.00 0.00 0.00 0.00 0.00 0.00 0.00 0.00 0.00 0.00 0.00 0.00 0.00 0.00 0.00 0.00 0.01 0.02 0.02 0.02 0.01 0.02 0.02 0.04 0.05 0.06 0.10 0.10 0.14 0.16 0.19 0.16 0.10 0.10 0.13 0.14 0.13 0.10
0.00 0.00 0.00 0.00 0.00 0.00 0.00 0.00 0.00 0.00 0.00 0.00 0.00 0.00 0.00 0.00 0.00 0.00 0.00 0.00 0.00 0.00 0.01 0.01 0.01 0.00 0.01 0.01 0.01 0.02 0.03 0.04 0.06 0.08 0.10 0.11 0.13 0.13 0.12 0.09 0.09 0.11 0.11 0.11
0.00 0.00 0.00 0.00 0.00 0.00 0.00 0.00 0.00 0.00 0.00 0.00 0.00 0.00 0.00 0.00 0.00 0.00 0.00 0.00 0.00 0.00 0.00 0.00 0.00 0.00 0.00 0.01 0.01 0.01 0.02 0.04 0.05 0.07 0.07 0.06 0.07 0.10 0.11 0.11 0.07 0.07 0.08 0.08
0.00 0.00 0.00 0.00 0.00 0.00 0.00 0.00 0.00 0.00 0.00 0.00 0.00 0.00 0.00 0.00 0.00 0.00 0.00 0.00 0.00 0.00 0.00 0.00 0.00 0.00 0.00 0.00 0.00 0.01 0.03 0.04 0.04 0.05 0.05 0.05 0.07 0.09 0.11 0.11 0.09 0.07 0.06 0.06
0.00 0.00 0.00 0.00 0.00 0.00 0.00 0.00 0.00 0.00 0.00 0.00 0.00 0.00 0.00 0.00 0.00 0.00 0.00 0.00 0.00 0.00 0.00 0.00 0.00 0.00 0.00 0.00 0.00 0.01 0.02 0.02 0.03 0.03 0.03 0.04 0.05 0.06 0.08 0.08 0.08 0.07 0.07 0.07
0.00 0.00 0.00 0.00 0.00 0.00 0.00 0.00 0.00 0.00 0.00 0.00 0.00 0.00 0.00 0.00 0.00 0.00 0.00 0.00 0.00 0.00 0.00 0.00 0.00 0.01 0.01 0.00 0.00 0.00 0.01 0.02 0.02 0.02 0.04 0.04 0.04 0.05 0.07 0.07 0.07 0.08 0.09 0.09
0.00 0.00 0.00 0.00 0.00 0.00 0.00 0.00 0.00 0.00 0.00 0.00 0.00 0.00 0.00 0.00 0.00 0.00 0.00 0.00 0.00 0.00 0.00 0.00 0.01 0.01 0.01 0.01 0.00 0.00 0.00 0.01 0.01 0.02 0.03 0.03 0.02 0.03 0.05 0.05 0.06 0.06 0.07 0.07
0.00 0.00 0.00 0.00 0.00 0.00 0.00 0.00 0.00 0.00 0.00 0.00 0.00 0.00 0.00 0.00 0.00 0.00 0.00 0.00 0.00 0.00 0.00 0.00 0.00 0.00 0.01 0.01 0.00 0.00 0.00 0.00 0.01 0.02 0.02 0.02 0.03 0.03 0.05 0.08 0.08 0.07 0.06 0.06
0.00 0.00 0.00 0.00 0.00 0.00 0.00 0.00 0.00 0.00 0.00 0.00 0.00 0.00 0.00 0.00 0.00 0.00 0.00 0.00 0.00 0.00 0.00 0.00 0.00 0.00 0.01 0.01 0.00 0.00 0.00 0.00 0.01 0.01 0.01 0.03 0.05 0.04 0.04 0.05 0.09 0.09 0.06 0.05
0.00 0.00 0.00 0.00 0.00 0.00 0.00 0.00 0.00 0.00 0.00 0.00 0.00 0.00 0.00 0.00 0.00 0.00 0.00 0.00 0.00 0.00 0.00 0.00 0.00 0.00 0.01 0.01 0.00 0.00 0.00 0.00 0.01 0.01 0.01 0.02 0.05 0.04 0.03 0.03 0.05 0.08 0.08 0.07
0.00 0.00 0.00 0.00 0.00 0.00 0.00 0.00 0.00 0.00 0.00 0.00 0.00 0.00 0.00 0.00 0.00 0.00 0.00 0.00 0.00 0.00 0.00 0.00 0.00 0.00 0.00 0.00 0.00 0.00 0.00 0.00 0.01 0.01 0.01 0.01 0.03 0.02 0.02 0.04 0.05 0.08 0.07 0.06
0.00 0.00 0.00 0.00 0.00 0.00 0.00 0.00 0.00 0.00 0.00 0.00 0.00 0.00 0.00 0.00 0.00 0.00 0.00 0.00 0.00 0.00 0.00 0.00 0.00 0.00 0.00 0.00 0.00 0.00 0.01 0.00 0.01 0.01 0.01 0.01 0.02 0.01 0.01 0.02 0.03 0.06 0.08 0.05
0.00 0.00 0.00 0.00 0.00 0.00 0.00 0.00 0.00 0.00 0.00 0.00 0.00 0.00 0.00 0.00 0.00 0.00 0.00 0.00 0.00 0.00 0.00 0.00 0.00 0.00 0.00 0.00 0.00 0.00 0.00 0.00 0.00 0.00 0.01 0.01 0.01 0.01 0.01 0.01 0.02 0.03 0.04 0.06
0.00 0.00 0.00 0.00 0.00 0.00 0.00 0.00 0.00 0.00 0.00 0.00 0.00 0.00 0.00 0.00 0.00 0.00 0.00 0.00 0.00 0.00 0.00 0.01 0.01 0.00 0.00 0.00 0.01 0.01 0.00 0.01 0.01 0.01 0.01 0.01 0.02 0.02 0.02 0.02 0.02 0.02 0.03 0.03
0.00 0.00 0.00 0.00 0.00 0.00 0.00 0.00 0.00 0.00 0.00 0.00 0.00 0.00 0.00 0.00 0.00 0.00 0.00 0.00 0.00 0.00 0.00 0.01 0.00 0.01 0.01 0.01 0.01 0.01 0.01 0.01 0.01 0.01 0.02 0.02 0.02 0.03 0.02 0.02 0.02 0.02 0.02 0.02
0.00 0.00 0.00 0.00 0.00 0.00 0.00 0.00 0.00 0.00 0.00 0.00 0.00 0.00 0.00 0.00 0.00 0.00 0.00 0.00 0.00 0.00 0.01 0.01 0.01 0.01 0.02 0.02 0.02 0.02 0.02 0.02 0.02 0.02 0.02 0.02 0.02 0.03 0.03 0.03 0.03 0.02 0.02 0.02
0.00 0.00 0.00 0.00 0.00 0.00 0.00 0.00 0.00 0.00 0.00 0.00 0.00 0.00 0.00 0.00 0.00 0.00 0.00 0.00 0.00 0.00 0.01 0.01 0.02 0.02 0.03 0.03 0.03 0.03 0.03 0.02 0.02 0.02 0.02 0.02 0.02 0.02 0.03 0.04 0.03 0.03 0.03 0.03
0.00 0.00 0.00 0.00 0.00 0.00 0.00 0.00 0.00 0.00 0.00 0.00 0.00 0.00 0.00 0.00 0.00 0.00 0.00 0.01 0.01 0.01 0.02 0.03 0.04 0.04 0.05 0.05 0.04 0.04 0.03 0.02 0.02 0.02 0.02 0.02 0.02 0.02 0.02 0.02 0.03 0.03 0.03 0.02
0.00 0.00 0.00 0.00 0.00 0.00 0.00 0.00 0.00 0.00 0.00 0.00 0.00 0.00 0.00 0.00 0.01 0.01 0.02 0.02 0.02 0.02 0.02 0.04 0.04 0.04 0.04 0.04 0.04 0.03 0.03 0.02 0.01 0.02 0.02 0.02 0.02 0.02 0.02 0.02 0.02 0.02 0.02 0.02
0.00 0.00 0.00 0.00 0.00 0.00 0.00 0.00 0.00 0.00 0.00 0.00 0.00 0.00 0.01 0.01 0.01 0.01 0.02 0.02 0.02 0.03 0.03 0.04 0.04 0.03 0.04 0.04 0.03 0.03 0.03 0.02 0.02 0.01 0.01 0.01 0.01 0.01 0.01 0.01 0.01 0.01 0.01 0.01
0.00 0.00 0.00 0.00 0.00 0.00 0.00 0.00 0.00 0.00 0.00 0.00 0.01 0.01 0.01 0.01 0.01 0.01 0.01 0.02 0.03 0.03 0.03 0.04 0.04 0.04 0.04 0.04 0.03 0.03 0.03 0.02 0.01 0.01 0.01 0.01 0.01 0.01 0.01 0.01 0.01 0.01 0.01 0.02
0.00 0.00 0.01 0.01 0.00 0.00 0.00 0.00 0.00 0.00 0.00 0.01 0.01 0.01 0.01 0.01 0.01 0.01 0.01 0.01 0.02 0.02 0.02 0.03 0.03 0.03 0.03 0.03 0.05 0.05 0.04 0.04 0.03 0.02 0.01 0.01 0.01 0.01 0.01 0.02 0.02 0.03 0.03 0.03
MSLP
1012.44 1012.95 1013.35 1013.64 1013.83 1013.91 1013.90 1013.79 1013.60 1013.32 1012.95 1012.51 1012.02 1011.52 1011.07 1010.70 1010.47 1010.39 1010.46 1010.68 1011.01 1011.42 1011.87 1012.34 1012.81 1013.28 1013.75 1014.25 1014.77 1015.31 1015.86 1016.38 1016.84 1017.24 1017.54 1017.75 1017.88 1017.96 1018.01 1018.06 1018.14 1018.26 1018.42 1018.61
1013.03 1013.42 1013.70 1013.88 1013.99 1014.04 1014.05 1014.01 1013.92 1013.74 1013.46 1013.08 1012.60 1012.05 1011.50 1010.98 1010.58 1010.33 1010.26 1010.36 1010.62 1011.00 1011.46 1011.96 1012.47 1012.97 1013.47 1013.97 1014.49 1015.02 1015.57 1016.11 1016.62 1017.07 1017.45 1017.73 1017.93 1018.05 1018.11 1018.15 1018.19 1018.25 1018.35 1018.49
1013.50 1013.76 1013.91 1013.98 1014.02 1014.04 1014.09 1014.13 1014.14 1014.08 1013.91 1013.58 1013.11 1012.51 1011.84 1011.18 1010.60 1010.19 1009.97 1009.97 1010.17 1010.53 1011.01 1011.56 1012.11 1012.65 1013.18 1013.69 1014.20 1014.72 1015.26 1015.81 1016.36 1016.87 1017.32 1017.68 1017.95 1018.12 1018.21 1018.24 1018.25 1018.26 1018.30 1018.38
1013.79 1013.92 1013.95 1013.93 1013.91 1013.95 1014.04 1014.18 1014.32 1014.38 1014.30 1014.04 1013.56 1012.91 1012.13 1011.31 1010.57 1009.99 1009.63 1009.53 1009.68 1010.04 1010.55 1011.14 1011.75 1012.33 1012.88 1013.40 1013.90 1014.41 1014.93 1015.49 1016.06 1016.62 1017.13 1017.57 1017.91 1018.14 1018.26 1018.30 1018.29 1018.27 1018.26 1018.29
1013.83 1013.86 1013.80 1013.73 1013.70 1013.77 1013.95 1014.21 1014.48 1014.66 1014.69 1014.47 1014.00 1013.29 1012.40 1011.45 1010.54 1009.81 1009.32 1009.13 1009.23 1009.58 1010.11 1010.75 1011.40 1012.03 1012.60 1013.12 1013.60 1014.08 1014.59 1015.14 1015.72 1016.31 1016.88 1017.38 1017.79 1018.08 1018.24 1018.30 1018.28 1018.23 1018.19 1018.18
1013.64 1013.60 1013.49 1013.41 1013.41 1013.56 1013.84 1014.24 1014.64 1014.96 1015.08 1014.92 1014.45 1013.69 1012.71 1011.62 1010.58 1009.71 1009.10 1008.82 1008.88 1009.21 1009.76 1010.43 1011.12 1011.77 1012.35 1012.86 1013.32 1013.77 1014.24 1014.76 1015.33 1015.93 1016.53 1017.09 1017.55 1017.89 1018.09 1018.18 1018.17 1018.12 1018.05 1018.02
1013.24 1013.17 1013.06 1013.00 1013.08 1013.32 1013.74 1014.27 1014.81 1015.25 1015.46 1015.36 1014.89 1014.10 1013.05 1011.87 1010.71 1009.73 1009.03 1008.68 1008.68 1008.99 1009.54 1010.22 1010.93 1011.59 1012.16 1012.65 1013.08 1013.48 1013.90 1014.38 1014.92 1015.51 1016.11 1016.68 1017.18 1017.55 1017.80 1017.91 1017.93 1017.89 1017.82 1017.79
1012.72 1012.64 1012.56 1012.56 1012.72 1013.08 1013.62 1014.28 1014.95 1015.49 1015.77 1015.72 1015.27 1014.47 1013.38 1012.14 1010.92 1009.86 1009.10 1008.69 1008.65 1008.93 1009.47 1010.14 1010.84 1011.49 1012.05 1012.51 1012.89 1013.24 1013.60 1014.02 1014.51 1015.06 1015.64 1016.20 1016.70 1017.09 1017.36 1017.50 1017.54 1017.52 1017.48 1017.45
1012.18 1012.11 1012.07 1012.14 1012.39 1012.84 1013.48 1014.23 1014.97 1015.58 1015.92 1015.91 1015.49 1014.70 1013.61 1012.36 1011.12 1010.04 1009.25 1008.81 1008.74 1009.00 1009.51 1010.16 1010.84 1011.47 1012.00 1012.43 1012.77 1013.06 1013.37 1013.72 1014.15 1014.64 1015.16 1015.68 1016.16 1016.54 1016.81 1016.97 1017.04 1017.04 1017.03 1017.04
1011.72 1011.67 1011.66 1011.79 1012.09 1012.59 1013.28 1014.06 1014.83 1015.46 1015.82 1015.82 1015.43 1014.67 1013.63 1012.42 1011.22 1010.17 1009.40 1008.96 1008.88 1009.12 1009.60 1010.22 1010.88 1011.48 1011.99 1012.39 1012.69 1012.95 1013.20 1013.50 1013.85 1014.27 1014.73 1015.19 1015.61 1015.96 1016.22 1016.38 1016.46 1016.49 1016.52 1016.56
1011.45 1011.40 1011.41 1011.55 1011.86 1012.36 1013.01 1013.75 1014.47 1015.05 1015.38 1015.38 1015.01 1014.30 1013.33 1012.22 1011.11 1010.14 1009.43 1009.03 1008.97 1009.20 1009.66 1010.25 1010.88 1011.46 1011.95 1012.34 1012.63 1012.87 1013.09 1013.34 1013.64 1013.99 1014.37 1014.76 1015.12 1015.42 1015.64 1015.79 1015.88 1015.93 1015.99 1016.07
1011.39 1011.34 1011.35 1011.47 1011.73 1012.15 1012.70 1013.32 1013.91 1014.38 1014.63 1014.58 1014.22 1013.57 1012.71 1011.72 1010.74 1009.90 1009.29 1008.96 1008.93 1009.17 1009.62 1010.18 1010.78 1011.35 1011.84 1012.23 1012.53 1012.78 1013.00 1013.24 1013.50 1013.80 1014.11 1014.43 1014.72 1014.96 1015.14 1015.27 1015.35 1015.42 1015.50 1015.61
1011.55 1011.49 1011.48 1011.54 1011.71 1012.00 1012.38 1012.81 1013.21 1013.50 1013.62 1013.50 1013.14 1012.55 1011.79 1010.95 1010.14 1009.45 1008.97 1008.73 1008.75 1009.00 1009.44 1009.98 1010.55 1011.10 1011.59 1012.01 1012.34 1012.63 1012.88 1013.13 1013.39 1013.66 1013.93 1014.19 1014.42 1014.60 1014.74 1014.84 1014.92 1015.00 1015.10 1015.23
1011.89 1011.82 1011.77 1011.76 1011.81 1011.93 1012.10 1012.29 1012.45 1012.53 1012.48 1012.27 1011.89 1011.35 1010.71 1010.03 1009.39 1008.87 1008.52 1008.38 1008.45 1008.72 1009.13 1009.64 1010.18 1010.72 1011.21 1011.65 1012.04 1012.38 1012.69 1012.98 1013.26 1013.53 1013.78 1014.01 1014.19 1014.34 1014.45 1014.53 1014.61 1014.69 1014.80 1014.94
1012.31 1012.24 1012.16 1012.08 1011.99 1011.93 1011.87 1011.81 1011.72 1011.57 1011.35 1011.03 1010.62 1010.14 1009.61 1009.09 1008.63 1008.28 1008.06 1008.01 1008.12 1008.38 1008.76 1009.22 1009.72 1010.22 1010.71 1011.18 1011.61 1012.01 1012.39 1012.74 1013.07 1013.37 1013.63 1013.85 1014.02 1014.14 1014.24 1014.32 1014.40 1014.49 1014.61 1014.75
1012.71 1012.66 1012.55 1012.40 1012.20 1011.96 1011.69 1011.39 1011.07 1010.72 1010.33 1009.93 1009.50 1009.07 1008.66 1008.29 1007.99 1007.79 1007.69 1007.72 1007.85 1008.09 1008.42 1008.80 1009.24 1009.69 1010.16 1010.63 1011.09 1011.55 1012.00 1012.42 1012.80 1013.15 1013.44 1013.67 1013.85 1013.98 1014.08 1014.16 1014.26 1014.36 1014.50 1014.65
1012.99 1012.96 1012.84 1012.64 1012.34 1011.97 1011.53 1011.03 1010.52 1010.00 1009.49 1009.02 1008.60 1008.23 1007.93 1007.71 1007.57 1007.50 1007.51 1007.59 1007.73 1007.93 1008.19 1008.48 1008.82 1009.21 1009.62 1010.08 1010.56 1011.05 1011.55 1012.03 1012.47 1012.86 1013.19 1013.45 1013.65 1013.81 1013.93 1014.04 1014.16 1014.29 1014.45 1014.61
1013.07 1013.05 1012.92 1012.69 1012.33 1011.85 1011.29 1010.66 1010.02 1009.39 1008.82 1008.33 1007.94 1007.66 1007.48 1007.41 1007.40 1007.46 1007.56 1007.68 1007.82 1007.97 1008.14 1008.34 1008.57 1008.86 1009.21 1009.62 1010.09 1010.60 1011.12 1011.64 1012.13 1012.56 1012.92 1013.21 1013.44 1013.62 1013.77 1013.92 1014.07 1014.23 1014.42 1014.61
1012.92 1012.88 1012.74 1012.48 1012.08 1011.54 1010.91 1010.21 1009.51 1008.84 1008.26 1007.80 1007.48 1007.30 1007.26 1007.32 1007.46 1007.63 1007.81 1007.97 1008.10 1008.21 1008.30 1008.41 1008.54 1008.74 1009.01 1009.36 1009.79 1010.28 1010.81 1011.34 1011.84 1012.29 1012.68 1012.99 1013.24 1013.44 1013.62 1013.79 1013.97 1014.17 1014.39 1014.61
1012.55 1012.47 1012.30 1012.00 1011.57 1011.01 1010.35 1009.64 1008.93 1008.28 1007.74 1007.36 1007.14 1007.09 1007.18 1007.39 1007.66 1007.94 1008.20 1008.41 1008.55 1008.63 1008.67 1008.69 1008.75 1008.86 1009.05 1009.34 1009.72 1010.18 1010.68 1011.19 1011.69 1012.13 1012.51 1012.82 1013.07 1013.28 1013.47 1013.66 1013.87 1014.10 1014.35 1014.61
1012.03 1011.88 1011.65 1011.31 1010.85 1010.29 1009.64 1008.95 1008.28 1007.69 1007.24 1006.96 1006.86 1006.94 1007.18 1007.52 1007.92 1008.31 1008.66 1008.92 1009.09 1009.17 1009.19 1009.17 1009.18 1009.23 1009.37 1009.60 1009.93 1010.33 1010.79 1011.27 1011.72 1012.13 1012.47 1012.76 1012.99 1013.18 1013.36 1013.55 1013.76 1014.01 1014.29 1014.58
1011.45 1011.21 1010.90 1010.51 1010.03 1009.47 1008.84 1008.21 1007.61 1007.11 1006.77 1006.60 1006.62 1006.84 1007.20 1007.67 1008.19 1008.69 1009.12 1009.45 1009.67 1009.78 1009.81 1009.80 1009.79 1009.82 1009.92 1010.11 1010.39 1010.75 1011.15 1011.56 1011.95 1012.30 1012.59 1012.81 1013.00 1013.15 1013.30 1013.47 1013.67 1013.92 1014.21 1014.52
1010.93 1010.57 1010.19 1009.75 1009.25 1008.70 1008.11 1007.53 1007.02 1006.62 1006.38 1006.33 1006.47 1006.79 1007.27 1007.84 1008.45 1009.04 1009.55 1009.96 1010.24 1010.41 1010.49 1010.51 1010.52 1010.56 1010.66 1010.83 1011.07 1011.37 1011.71 1012.04 1012.36 1012.62 1012.83 1012.99 1013.10 1013.19 1013.29 1013.42 1013.60 1013.84 1014.12 1014.44
1010.54 1010.09 1009.64 1009.16 1008.65 1008.11 1007.57 1007.06 1006.63 1006.32 1006.18 1006.22 1006.45 1006.85 1007.40 1008.05 1008.72 1009.38 1009.96 1010.44 1010.80 1011.04 1011.18 1011.26 1011.32 1011.39 1011.50 1011.65 1011.87 1012.12 1012.39 1012.65 1012.87 1013.05 1013.17 1013.24 1013.27 1013.30 1013.34 1013.42 1013.56 1013.77 1014.04 1014.36
1010.34 1009.83 1009.33 1008.83 1008.32 1007.81 1007.32 1006.88 1006.53 1006.30 1006.23 1006.33 1006.62 1007.08 1007.66 1008.34 1009.05 1009.74 1010.37 1010.90 1011.32 1011.63 1011.85 1012.00 1012.12 1012.23 1012.35 1012.51 1012.70 1012.90 1013.10 1013.28 1013.41 1013.50 1013.53 1013.51 1013.47 1013.43 1013.42 1013.46 1013.56 1013.74 1013.99 1014.29
1010.32 1009.79 1009.28 1008.79 1008.30 1007.83 1007.40 1007.02 1006.73 1006.57 1006.55 1006.69 1007.01 1007.47 1008.06 1008.73 1009.44 1010.14 1010.79 1011.35 1011.82 1012.19 1012.47 1012.68 1012.85 1013.01 1013.15 1013.30 1013.46 1013.61 1013.75 1013.84 1013.89 1013.89 1013.84 1013.76 1013.66 1013.57 1013.52 1013.52 1013.60 1013.76 1013.99 1014.28
Thickness
5822 5817 5814 5819 5823 5821 5818 5815 5814 5819 5831 5827 5825 5825 5828 5832 5829 5824 5821 5816 5810 5807 5807 5802 5795 5790 5784 5778 5773 5768 5763 5759 5754 5749 5746 5744 5743 5744 5745 5745 5745 5744 5745 5745
5808 5808 5821 5823 5820 5816 5814 5810 5813 5819 5827 5824 5823 5824 5831 5830 5827 5826 5823 5818 5814 5810 5806 5801 5795 5791 5785 5779 5774 5769 5764 5761 5756 5752 5748 5746 5745 5745 5746 5745 5745 5745 5745 5745
5804 5813 5820 5814 5810 5808 5811 5810 5813 5811 5820 5825 5820 5819 5823 5829 5829 5828 5827 5824 5820 5814 5807 5801 5797 5793 5788 5782 5777 5773 5768 5763 5758 5753 5749 5746 5743 5742 5743 5743 5744 5744 5744 5744
5806 5816 5810 5807 5808 5810 5805 5819 5815 5811 5808 5812 5811 5804 5818 5825 5823 5824 5825 5824 5821 5817 5812 5805 5800 5795 5790 5786 5781 5775 5770 5764 5759 5754 5750 5747 5744 5742 5743 5744 5746 5745 5744 5744
5803 5809 5805 5802 5811 5813 5813 5819 5814 5811 5808 5804 5810 5802 5816 5823 5817 5821 5825 5825 5824 5820 5815 5808 5804 5798 5793 5789 5783 5777 5770 5765 5760 5756 5752 5748 5746 5746 5746 5746 5744 5744 5745 5744
5808 5815 5814 5814 5819 5818 5815 5811 5808 5809 5808 5788 5800 5795 5802 5821 5819 5821 5824 5824 5822 5819 5816 5810 5806 5799 5793 5789 5783 5777 5770 5765 5761 5757 5754 5750 5747 5746 5745 5744 5743 5743 5744 5744
5790 5801 5813 5817 5807 5808 5808 5797 5786 5783 5785 5789 5801 5794 5804 5823 5827 5826 5824 5823 5822 5820 5815 5808 5802 5797 5791 5786 5781 5777 5770 5764 5761 5757 5755 5752 5749 5747 5745 5744 5744 5743 5744 5745
5781 5786 5804 5811 5809 5805 5803 5803 5783 5774 5780 5793 5793 5792 5814 5829 5830 5830 5830 5827 5823 5820 5816 5810 5804 5798 5792 5787 5782 5776 5770 5765 5761 5758 5756 5754 5751 5749 5748 5747 5746 5746 5746 5747
5790 5789 5809 5813 5817 5812 5799 5801 5815 5797 5788 5782 5794 5802 5818 5828 5825 5826 5825 5823 5820 5818 5815 5810 5805 5800 5794 5788 5783 5778 5771 5766 5762 5759 5755 5752 5751 5749 5749 5748 5747 5747 5746 5746
5797 5784 5797 5804 5806 5806 5811 5811 5799 5789 5769 5768 5783 5789 5801 5813 5816 5820 5820 5819 5819 5817 5814 5810 5805 5800 5795 5790 5784 5779 5773 5767 5763 5759 5756 5754 5751 5750 5749 5748 5747 5745 5745 5745
5796 5781 5785 5791 5790 5792 5792 5793 5796 5795 5792 5776 5774 5792 5822 5818 5820 5820 5821 5822 5819 5817 5814 5810 5805 5801 5795 5790 5783 5777 5772 5767 5763 5760 5756 5753 5752 5750 5749 5747 5746 5745 5744 5743
5789 5783 5777 5787 5803 5809 5804 5800 5794 5780 5776 5782 5784 5798 5829 5827 5827 5825 5824 5822 5821 5818 5815 5811 5805 5799 5794 5788 5783 5777 5772 5768 5764 5760 5756 5753 5751 5749 5748 5747 5745 5744 5743 5742
5781 5772 5759 5766 5777 5788 5791 5797 5799 5796 5788 5782 5778 5796 5825 5825 5824 5825 5823 5820 5817 5814 5811 5808 5803 5797 5792 5787 5782 5777 5773 5769 5765 5761 5756 5752 5750 5748 5746 5745 5744 5743 5742 5741
5779 5772 5770 5770 5781 5790 5783 5789 5793 5789 5782 5781 5786 5800 5813 5818 5818 5820 5819 5817 5815 5811 5807 5804 5799 5795 5790 5785 5780 5776 5772 5769 5765 5760 5755 5751 5748 5747 5746 5744 5743 5742 5740 5739
5769 5765 5772 5783 5792 5793 5790 5790 5789 5785 5792 5789 5795 5800 5812 5818 5818 5818 5817 5815 5811 5807 5804 5801 5796 5791 5786 5782 5777 5774 5770 5766 5763 5758 5754 5750 5747 5745 5743 5741 5740 5739 5738 5737
5757 5759 5765 5767 5780 5782 5781 5788 5789 5788 5793 5795 5798 5801 5820 5822 5819 5815 5813 5810 5806 5804 5803 5800 5796 5790 5785 5780 5776 5772 5767 5763 5759 5755 5752 5749 5746 5743 5740 5738 5737 5735 5733 5732
5749 5747 5749 5758 5772 5767 5762 5782 5787 5788 5795 5795 5791 5802 5814 5811 5809 5809 5809 5808 5805 5804 5802 5799 5795 5790 5785 5780 5776 5770 5766 5762 5757 5753 5750 5747 5744 5740 5738 5736 5734 5731 5729 5727
5732 5736 5746 5755 5750 5736 5776 5800 5799 5792 5794 5800 5801 5804 5806 5805 5806 5808 5808 5806 5804 5803 5801 5797 5794 5789 5785 5781 5775 5770 5765 5759 5754 5750 5747 5744 5740 5737 5734 5731 5729 5726 5724 5722
5730 5728 5738 5745 5741 5752 5769 5782 5789 5783 5783 5798 5796 5797 5801 5803 5801 5801 5802 5803 5801 5801 5799 5796 5793 5789 5783 5778 5773 5767 5762 5757 5752 5747 5744 5741 5737 5734 5730 5726 5724 5722 5719 5717
5723 5723 5728 5733 5732 5738 5764 5781 5788 5782 5769 5791 5792 5790 5792 5792 5788 5791 5792 5794 5794 5793 5792 5789 5787 5783 5777 5773 5769 5763 5758 5753 5748 5744 5740 5737 5733 5729 5726 5722 5719 5716 5714 5711
5707 5709 5716 5723 5727 5748 5764 5771 5773 5753 5762 5781 5785 5784 5785 5783 5783 5782 5784 5783 5782 5781 5780 5779 5776 5772 5769 5766 5762 5755 5751 5747 5743 5739 5735 5732 5728 5724 5721 5717 5713 5710 5708 5705
5709 5712 5711 5718 5718 5732 5753 5759 5757 5759 5768 5773 5775 5777 5775 5773 5773 5772 5771 5770 5770 5768 5768 5768 5764 5760 5759 5757 5753 5747 5743 5740 5737 5733 5729 5725 5722 5719 5716 5710 5706 5703 5700 5697
5707 5715 5724 5723 5726 5733 5742 5747 5751 5756 5756 5760 5763 5766 5765 5762 5761 5760 5758 5757 5757 5756 5755 5755 5752 5748 5746 5745 5744 5738 5733 5731 5728 5725 5721 5717 5714 5711 5708 5704 5700 5696 5693 5691
5693 5700 5707 5710 5717 5724 5731 5736 5741 5745 5746 5750 5753 5755 5756 5752 5751 5748 5747 5745 5743 5743 5743 5743 5741 5737 5733 5732 5731 5728 5724 5722 5719 5716 5712 5709 5705 5702 5699 5697 5695 5691 5688 5686
5680 5687 5693 5696 5705 5711 5716 5722 5727 5731 5735 5738 5741 5744 5743 5741 5738 5736 5734 5732 5731 5730 5730 5730 5727 5724 5721 5720 5718 5715 5714 5712 5710 5706 5703 5701 5698 5695 5690 5686 5683 5682 5679 5677
5671 5675 5680 5686 5693 5698 5702 5710 5716 5718 5721 5725 5726 5727 5729 5728 5726 5725 5722 5720 5719 5717 5717 5716 5714 5712 5710 5708 5706 5704 5703 5702 5699 5696 5693 5692 5690 5686 5682 5678 5672 5665 5664 5661